Time,TemperatureF,DewpointF,PressureIn,WindDirection,WindDirectionDegrees,WindSpeedMPH,WindSpeedGustMPH,Humidity,HourlyPrecipIn,Conditions,Clouds,dailyrainin,SoftwareType,DateUTC
2013-02-14 00:02:00,32.0,27.0,29.70,South,169,0.0,0.0,81,0.00,,,0.00,,2013-02-14 05:02:00,
2013-02-14 00:11:00,32.0,27.0,29.70,South,169,0.0,0.0,81,0.00,,,0.00,,2013-02-14 05:11:00,
2013-02-14 00:22:00,32.0,27.0,29.68,North,349,2.0,3.0,80,0.00,,,0.00,,2013-02-14 05:22:00,
2013-02-14 00:32:00,32.0,26.0,29.69,North,357,0.0,2.0,78,0.00,,,0.00,,2013-02-14 05:32:00,
2013-02-14 00:42:00,32.0,26.0,29.69,North,357,0.0,2.0,78,0.00,,,0.00,,2013-02-14 05:42:00,
2013-02-14 00:52:00,32.0,26.0,29.72,SE,139,3.0,3.0,77,0.00,,,0.00,,2013-02-14 05:52:00,
2013-02-14 01:02:00,32.0,26.0,29.72,SE,139,0.0,0.0,78,0.00,,,0.00,,2013-02-14 06:02:00,
2013-02-14 01:11:00,32.0,26.0,29.73,SE,139,0.0,0.0,77,0.00,,,0.00,,2013-02-14 06:11:00,
2013-02-14 01:21:00,32.0,26.0,29.73,SE,139,0.0,0.0,77,0.00,,,0.00,,2013-02-14 06:21:00,
2013-02-14 01:32:00,32.0,25.0,29.72,SE,139,0.0,0.0,75,0.00,,,0.00,,2013-02-14 06:32:00,
2013-02-14 01:42:00,32.0,25.0,29.72,SE,139,0.0,0.0,75,0.00,,,0.00,,2013-02-14 06:42:00,
2013-02-14 01:52:00,32.0,25.0,29.72,SE,139,0.0,1.0,74,0.00,,,0.00,,2013-02-14 06:52:00,
2013-02-14 02:01:00,32.0,25.0,29.71,SE,139,0.0,0.0,74,0.00,,,0.00,,2013-02-14 07:01:00,
2013-02-14 02:11:00,32.0,25.0,29.71,SE,139,0.0,0.0,74,0.00,,,0.00,,2013-02-14 07:11:00,
2013-02-14 02:21:00,32.0,24.0,29.71,SE,138,0.0,0.0,72,0.00,,,0.00,,2013-02-14 07:21:00,
2013-02-14 02:32:00,32.0,24.0,29.70,NW,305,0.0,0.0,72,0.00,,,0.00,,2013-02-14 07:32:00,
2013-02-14 02:42:00,32.0,24.0,29.70,NW,305,0.0,0.0,72,0.00,,,0.00,,2013-02-14 07:42:00,
2013-02-14 02:51:00,32.0,24.0,29.70,North,354,2.0,3.0,71,0.00,,,0.00,,2013-02-14 07:51:00,
2013-02-14 03:01:00,32.0,24.0,29.70,North,6,1.0,2.0,71,0.00,,,0.00,,2013-02-14 08:01:00,
2013-02-14 03:11:00,32.0,24.0,29.70,North,6,1.0,2.0,71,0.00,,,0.00,,2013-02-14 08:11:00,
2013-02-14 03:22:00,33.0,24.0,29.71,NNE,12,3.0,5.0,70,0.00,,,0.00,,2013-02-14 08:22:00,
2013-02-14 03:32:00,33.0,24.0,29.72,NW,311,4.0,6.0,68,0.00,,,0.00,,2013-02-14 08:32:00,
2013-02-14 03:43:00,33.0,24.0,29.72,NW,311,4.0,6.0,68,0.00,,,0.00,,2013-02-14 08:43:00,
2013-02-14 03:52:00,33.0,23.0,29.72,NNW,345,4.0,6.0,67,0.00,,,0.00,,2013-02-14 08:52:00,
2013-02-14 04:02:00,33.0,23.0,29.72,NNW,345,4.0,7.0,67,0.00,,,0.00,,2013-02-14 09:02:00,
2013-02-14 04:11:00,33.0,23.0,29.72,NNW,345,4.0,7.0,67,0.00,,,0.00,,2013-02-14 09:11:00,
2013-02-14 04:21:00,33.0,23.0,29.73,NNW,342,5.0,8.0,66,0.00,,,0.00,,2013-02-14 09:21:00,
2013-02-14 04:32:00,33.0,23.0,29.74,NNW,330,4.0,7.0,67,0.00,,,0.00,,2013-02-14 09:32:00,
2013-02-14 04:42:00,33.0,23.0,29.74,NNW,330,4.0,7.0,67,0.00,,,0.00,,2013-02-14 09:42:00,
2013-02-14 04:52:00,33.0,23.0,29.75,NNW,330,3.0,6.0,67,0.00,,,0.00,,2013-02-14 09:52:00,
2013-02-14 05:02:00,33.0,23.0,29.76,NNW,328,4.0,9.0,65,0.00,,,0.00,,2013-02-14 10:02:00,
2013-02-14 05:11:00,33.0,22.0,29.76,North,349,4.0,6.0,64,0.00,,,0.00,,2013-02-14 10:11:00,
2013-02-14 05:21:00,33.0,22.0,29.76,North,349,4.0,6.0,64,0.00,,,0.00,,2013-02-14 10:21:00,
2013-02-14 05:32:00,33.0,22.0,29.76,North,350,4.0,6.0,63,0.00,,,0.00,,2013-02-14 10:32:00,
2013-02-14 05:42:00,33.0,22.0,29.76,North,350,4.0,6.0,63,0.00,,,0.00,,2013-02-14 10:42:00,
2013-02-14 05:52:00,33.0,22.0,29.75,North,4,3.0,6.0,63,0.00,,,0.00,,2013-02-14 10:52:00,
2013-02-14 06:02:00,33.0,22.0,29.75,NNW,340,3.0,7.0,63,0.00,,,0.00,,2013-02-14 11:02:00,
2013-02-14 06:11:00,33.0,22.0,29.75,NNW,340,3.0,7.0,63,0.00,,,0.00,,2013-02-14 11:11:00,
2013-02-14 06:21:00,33.0,22.0,29.76,North,351,3.0,7.0,63,0.00,,,0.00,,2013-02-14 11:21:00,
2013-02-14 06:32:00,33.0,22.0,29.77,NW,323,2.0,7.0,63,0.00,,,0.00,,2013-02-14 11:32:00,
2013-02-14 06:42:00,33.0,22.0,29.77,NW,323,2.0,7.0,63,0.00,,,0.00,,2013-02-14 11:42:00,
2013-02-14 06:52:00,32.0,21.0,29.78,North,354,2.0,5.0,64,0.00,,,0.00,,2013-02-14 11:52:00,
2013-02-14 07:02:00,32.0,22.0,29.78,North,352,2.0,4.0,65,0.00,,,0.00,,2013-02-14 12:02:00,
2013-02-14 07:12:00,32.0,22.0,29.78,North,352,2.0,4.0,65,0.00,,,0.00,,2013-02-14 12:12:00,
2013-02-14 07:22:00,32.0,22.0,29.79,NNE,19,2.0,5.0,66,0.00,,,0.00,,2013-02-14 12:22:00,
2013-02-14 07:32:00,31.0,21.0,29.79,NNE,20,2.0,4.0,66,0.00,,,0.00,,2013-02-14 12:32:00,
2013-02-14 07:42:00,31.0,21.0,29.79,NNE,20,2.0,4.0,66,0.00,,,0.00,,2013-02-14 12:42:00,
2013-02-14 07:53:00,32.0,22.0,29.80,North,358,3.0,4.0,66,0.00,,,0.00,,2013-02-14 12:53:00,
2013-02-14 08:02:00,32.0,22.0,29.82,NNE,22,3.0,5.0,66,0.00,,,0.00,,2013-02-14 13:02:00,
2013-02-14 08:11:00,32.0,22.0,29.82,NNE,22,3.0,5.0,66,0.00,,,0.00,,2013-02-14 13:11:00,
2013-02-14 08:21:00,32.0,22.0,29.83,NNW,330,3.0,8.0,65,0.00,,,0.00,,2013-02-14 13:21:00,
2013-02-14 08:32:00,33.0,22.0,29.82,NW,326,3.0,7.0,64,0.00,,,0.00,,2013-02-14 13:32:00,
2013-02-14 08:42:00,33.0,22.0,29.82,NW,326,3.0,7.0,64,0.00,,,0.00,,2013-02-14 13:42:00,
2013-02-14 08:52:00,34.0,22.0,29.83,North,357,3.0,7.0,62,0.00,,,0.00,,2013-02-14 13:52:00,
2013-02-14 09:01:00,35.0,23.0,29.83,WNW,300,3.0,7.0,60,0.00,,,0.00,,2013-02-14 14:01:00,
2013-02-14 09:11:00,35.0,23.0,29.83,WNW,300,3.0,7.0,60,0.00,,,0.00,,2013-02-14 14:11:00,
2013-02-14 09:21:00,35.0,21.0,29.84,NNE,19,3.0,9.0,57,0.00,,,0.00,,2013-02-14 14:21:00,
2013-02-14 09:32:00,36.0,21.0,29.85,NNW,347,4.0,7.0,55,0.00,,,0.00,,2013-02-14 14:32:00,
2013-02-14 09:42:00,36.0,21.0,29.85,NNW,347,4.0,7.0,55,0.00,,,0.00,,2013-02-14 14:42:00,
2013-02-14 09:52:00,37.0,21.0,29.85,North,4,4.0,7.0,52,0.00,,,0.00,,2013-02-14 14:52:00,
2013-02-14 10:02:00,37.0,21.0,29.86,NNE,25,2.0,7.0,52,0.00,,,0.00,,2013-02-14 15:02:00,
2013-02-14 10:11:00,37.0,21.0,29.86,NNE,25,2.0,7.0,52,0.00,,,0.00,,2013-02-14 15:11:00,
2013-02-14 10:21:00,38.0,21.0,29.86,WSW,257,3.0,9.0,50,0.00,,,0.00,,2013-02-14 15:21:00,
2013-02-14 10:32:00,38.0,21.0,29.86,North,355,6.0,8.0,49,0.00,,,0.00,,2013-02-14 15:32:00,
2013-02-14 10:42:00,38.0,21.0,29.86,North,355,6.0,8.0,49,0.00,,,0.00,,2013-02-14 15:42:00,
2013-02-14 10:52:00,39.0,21.0,29.87,WNW,287,3.0,7.0,48,0.00,,,0.00,,2013-02-14 15:52:00,
2013-02-14 11:02:00,39.0,21.0,29.87,West,274,3.0,10.0,48,0.00,,,0.00,,2013-02-14 16:02:00,
2013-02-14 11:11:00,40.0,22.0,29.87,North,4,4.0,9.0,48,0.00,,,0.00,,2013-02-14 16:11:00,
2013-02-14 11:21:00,40.0,22.0,29.87,North,4,4.0,9.0,48,0.00,,,0.00,,2013-02-14 16:21:00,
2013-02-14 11:32:00,40.0,21.0,29.88,NNE,15,3.0,9.0,47,0.00,,,0.00,,2013-02-14 16:32:00,
2013-02-14 11:42:00,40.0,21.0,29.88,NNE,15,3.0,9.0,47,0.00,,,0.00,,2013-02-14 16:42:00,
2013-02-14 11:52:00,40.0,21.0,29.87,NW,311,6.0,10.0,47,0.00,,,0.00,,2013-02-14 16:52:00,
2013-02-14 12:01:00,40.0,22.0,29.87,West,269,3.0,8.0,48,0.00,,,0.00,,2013-02-14 17:01:00,
2013-02-14 12:11:00,40.0,22.0,29.87,West,269,3.0,8.0,48,0.00,,,0.00,,2013-02-14 17:11:00,
2013-02-14 12:21:00,41.0,22.0,29.88,NW,326,4.0,8.0,46,0.00,,,0.00,,2013-02-14 17:21:00,
2013-02-14 12:32:00,41.0,22.0,29.87,North,360,5.0,9.0,46,0.00,,,0.00,,2013-02-14 17:32:00,
2013-02-14 12:42:00,41.0,22.0,29.87,North,360,5.0,9.0,46,0.00,,,0.00,,2013-02-14 17:42:00,
2013-02-14 12:52:00,41.0,22.0,29.87,West,263,6.0,12.0,46,0.00,,,0.00,,2013-02-14 17:52:00,
2013-02-14 13:01:00,41.0,22.0,29.87,NW,315,6.0,12.0,46,0.00,,,0.00,,2013-02-14 18:01:00,
2013-02-14 13:11:00,41.0,22.0,29.87,NW,315,6.0,12.0,46,0.00,,,0.00,,2013-02-14 18:11:00,
2013-02-14 13:23:00,40.0,22.0,29.87,North,9,3.0,11.0,48,0.00,,,0.00,,2013-02-14 18:23:00,
2013-02-14 13:32:00,40.0,22.0,29.87,WSW,252,4.0,9.0,48,0.00,,,0.00,,2013-02-14 18:32:00,
2013-02-14 13:42:00,40.0,22.0,29.87,WSW,252,4.0,9.0,48,0.00,,,0.00,,2013-02-14 18:42:00,
2013-02-14 13:52:00,41.0,23.0,29.88,WNW,291,3.0,6.0,48,0.00,,,0.00,,2013-02-14 18:52:00,
2013-02-14 14:02:00,41.0,22.0,29.88,WNW,302,5.0,7.0,47,0.00,,,0.00,,2013-02-14 19:02:00,
2013-02-14 14:11:00,41.0,22.0,29.88,WNW,302,5.0,7.0,47,0.00,,,0.00,,2013-02-14 19:11:00,
2013-02-14 14:22:00,41.0,22.0,29.88,West,263,4.0,11.0,47,0.00,,,0.00,,2013-02-14 19:22:00,
2013-02-14 14:32:00,41.0,23.0,29.88,SW,224,2.0,7.0,48,0.00,,,0.00,,2013-02-14 19:32:00,
2013-02-14 14:42:00,41.0,23.0,29.88,SW,224,2.0,7.0,48,0.00,,,0.00,,2013-02-14 19:42:00,
2013-02-14 14:52:00,42.0,23.0,29.88,NW,315,2.0,7.0,47,0.00,,,0.00,,2013-02-14 19:52:00,
2013-02-14 15:01:00,42.0,23.0,29.88,WNW,293,4.0,7.0,47,0.00,,,0.00,,2013-02-14 20:01:00,
2013-02-14 15:11:00,42.0,23.0,29.88,WSW,255,5.0,7.0,46,0.00,,,0.00,,2013-02-14 20:11:00,
2013-02-14 15:21:00,42.0,23.0,29.88,WSW,255,5.0,7.0,46,0.00,,,0.00,,2013-02-14 20:21:00,
2013-02-14 15:32:00,43.0,23.0,29.89,NE,55,1.0,5.0,45,0.00,,,0.00,,2013-02-14 20:32:00,
2013-02-14 15:42:00,43.0,23.0,29.89,NE,55,1.0,5.0,45,0.00,,,0.00,,2013-02-14 20:42:00,
2013-02-14 15:52:00,43.0,23.0,29.89,ESE,109,2.0,6.0,45,0.00,,,0.00,,2013-02-14 20:52:00,
2013-02-14 16:02:00,44.0,24.0,29.90,ESE,122,2.0,4.0,45,0.00,,,0.00,,2013-02-14 21:02:00,
2013-02-14 16:11:00,44.0,24.0,29.90,ESE,122,2.0,4.0,45,0.00,,,0.00,,2013-02-14 21:11:00,
2013-02-14 16:21:00,43.0,25.0,29.91,SSE,160,3.0,6.0,48,0.00,,,0.00,,2013-02-14 21:21:00,
2013-02-14 16:32:00,41.0,25.0,29.91,SE,139,3.0,5.0,53,0.00,,,0.00,,2013-02-14 21:32:00,
2013-02-14 16:42:00,41.0,25.0,29.91,SE,139,3.0,5.0,53,0.00,,,0.00,,2013-02-14 21:42:00,
2013-02-14 16:52:00,40.0,26.0,29.91,East,88,1.0,7.0,56,0.00,,,0.00,,2013-02-14 21:52:00,
2013-02-14 17:02:00,39.0,25.0,29.92,SW,214,0.0,3.0,58,0.00,,,0.00,,2013-02-14 22:02:00,
2013-02-14 17:11:00,38.0,25.0,29.92,NW,316,0.0,2.0,60,0.00,,,0.00,,2013-02-14 22:11:00,
2013-02-14 17:21:00,38.0,25.0,29.92,NW,316,0.0,2.0,60,0.00,,,0.00,,2013-02-14 22:21:00,
2013-02-14 17:32:00,37.0,26.0,29.93,SSW,210,0.0,1.0,65,0.00,,,0.00,,2013-02-14 22:32:00,
2013-02-14 17:42:00,37.0,26.0,29.93,SSW,210,0.0,1.0,65,0.00,,,0.00,,2013-02-14 22:42:00,
2013-02-14 17:52:00,36.0,26.0,29.94,ESE,117,0.0,0.0,67,0.00,,,0.00,,2013-02-14 22:52:00,
2013-02-14 18:01:00,34.0,25.0,29.95,SSE,149,0.0,0.0,69,0.00,,,0.00,,2013-02-14 23:01:00,
2013-02-14 18:11:00,34.0,25.0,29.95,SSE,149,0.0,0.0,69,0.00,,,0.00,,2013-02-14 23:11:00,
2013-02-14 18:21:00,33.0,25.0,29.95,SSE,149,0.0,0.0,71,0.00,,,0.00,,2013-02-14 23:21:00,
2013-02-14 18:32:00,33.0,26.0,29.95,SW,219,0.0,0.0,74,0.00,,,0.00,,2013-02-14 23:32:00,
2013-02-14 18:42:00,33.0,26.0,29.95,SW,219,0.0,0.0,74,0.00,,,0.00,,2013-02-14 23:42:00,
2013-02-14 18:52:00,32.0,25.0,29.96,South,188,0.0,2.0,76,0.00,,,0.00,,2013-02-14 23:52:00,
2013-02-14 19:01:00,31.0,25.0,29.96,South,187,0.0,1.0,78,0.00,,,0.00,,2013-02-15 00:01:00,
2013-02-14 19:11:00,31.0,25.0,29.96,South,187,0.0,1.0,78,0.00,,,0.00,,2013-02-15 00:11:00,
2013-02-14 19:22:00,31.0,26.0,29.96,SW,214,0.0,1.0,80,0.00,,,0.00,,2013-02-15 00:22:00,
2013-02-14 19:32:00,31.0,26.0,29.96,SSW,204,0.0,1.0,81,0.00,,,0.00,,2013-02-15 00:32:00,
2013-02-14 19:42:00,31.0,26.0,29.96,SSW,204,0.0,1.0,81,0.00,,,0.00,,2013-02-15 00:42:00,
2013-02-14 19:52:00,31.0,26.0,29.96,SSW,204,0.0,0.0,82,0.00,,,0.00,,2013-02-15 00:52:00,
2013-02-14 20:02:00,30.0,25.0,29.96,SSW,195,0.0,1.0,83,0.00,,,0.00,,2013-02-15 01:02:00,
2013-02-14 20:11:00,30.0,25.0,29.96,SSW,195,0.0,1.0,83,0.00,,,0.00,,2013-02-15 01:11:00,
2013-02-14 20:21:00,30.0,26.0,29.96,WSW,239,0.0,1.0,84,0.00,,,0.00,,2013-02-15 01:21:00,
2013-02-14 20:32:00,30.0,26.0,29.96,SW,233,0.0,1.0,84,0.00,,,0.00,,2013-02-15 01:32:00,
2013-02-14 20:41:00,30.0,26.0,29.96,SW,233,0.0,1.0,84,0.00,,,0.00,,2013-02-15 01:41:00,
2013-02-14 20:51:00,30.0,26.0,29.96,SSE,157,0.0,0.0,84,0.00,,,0.00,,2013-02-15 01:51:00,
2013-02-14 21:01:00,31.0,26.0,29.96,SSW,201,1.0,2.0,83,0.00,,,0.00,,2013-02-15 02:01:00,
2013-02-14 21:11:00,31.0,26.0,29.96,SSW,201,1.0,2.0,83,0.00,,,0.00,,2013-02-15 02:11:00,
2013-02-14 21:21:00,31.0,26.0,29.96,SSW,204,1.0,2.0,82,0.00,,,0.00,,2013-02-15 02:21:00,
2013-02-14 21:32:00,31.0,26.0,29.96,SSW,195,2.0,3.0,81,0.00,,,0.00,,2013-02-15 02:32:00,
2013-02-14 21:42:00,31.0,26.0,29.96,SSW,195,2.0,3.0,81,0.00,,,0.00,,2013-02-15 02:42:00,
2013-02-14 21:52:00,31.0,26.0,29.96,SSW,207,2.0,3.0,82,0.00,,,0.00,,2013-02-15 02:52:00,
2013-02-14 22:02:00,31.0,26.0,29.96,South,187,2.0,3.0,82,0.00,,,0.00,,2013-02-15 03:02:00,
2013-02-14 22:11:00,31.0,26.0,29.96,South,187,2.0,3.0,82,0.00,,,0.00,,2013-02-15 03:11:00,
2013-02-14 22:22:00,30.0,25.0,29.96,SSW,198,2.0,3.0,83,0.00,,,0.00,,2013-02-15 03:22:00,
2013-02-14 22:32:00,30.0,25.0,29.96,SSW,210,1.0,3.0,83,0.00,,,0.00,,2013-02-15 03:32:00,
2013-02-14 22:42:00,30.0,25.0,29.96,SSW,210,1.0,3.0,83,0.00,,,0.00,,2013-02-15 03:42:00,
2013-02-14 22:51:00,30.0,26.0,29.96,SSW,207,2.0,3.0,84,0.00,,,0.00,,2013-02-15 03:51:00,
2013-02-14 23:01:00,30.0,25.0,29.96,SSW,193,2.0,3.0,83,0.00,,,0.00,,2013-02-15 04:01:00,
2013-02-14 23:11:00,30.0,25.0,29.96,SSW,193,2.0,3.0,83,0.00,,,0.00,,2013-02-15 04:11:00,
2013-02-14 23:21:00,32.0,26.0,29.97,SSE,153,2.0,4.0,79,0.00,,,0.00,,2013-02-15 04:21:00,
2013-02-14 23:32:00,32.0,26.0,29.97,SE,140,2.0,4.0,78,0.00,,,0.00,,2013-02-15 04:32:00,
2013-02-14 23:42:00,32.0,26.0,29.97,SE,140,2.0,4.0,78,0.00,,,0.00,,2013-02-15 04:42:00,
2013-02-14 23:52:00,33.0,26.0,29.97,SSE,155,2.0,4.0,76,0.00,,,0.00,,2013-02-15 04:52:00,